| time (UTC) | temp F | wind direction | speed MPH | gust MPH | rain 1hr in | rain 24hr in | rain mn in | humidity % | barometer mb |
| 20260904172159 | 69 | 119 | 1.0 | 4.0 | 0.00 | 0.00 | 0.06 | 69 | 1012.9 |
| 20260904171659 | 69 | 196 | 1.0 | 6.0 | 0.00 | 0.00 | 0.06 | 70 | 1012.9 |
| 20260904171157 | 69 | 187 | 2.0 | 6.0 | 0.00 | 0.00 | 0.06 | 71 | 1012.7 |
| 20260904170704 | 69 | 178 | 2.0 | 2.0 | 0.00 | 0.00 | 0.06 | 71 | 1012.8 |
| 20260904165155 | 66 | 227 | 1.0 | 6.0 | 0.00 | 0.00 | 0.06 | 73 | 1012.6 |
| 20260904164651 | 67 | 146 | 1.0 | 1.0 | 0.00 | 0.00 | 0.06 | 74 | 1012.5 |
| 20260904163451 | 66 | 144 | 2.0 | 3.0 | 0.00 | 0.00 | 0.06 | 76 | 1012.3 |
| 20260904162316 | 66 | 220 | 1.0 | 3.0 | 0.00 | 0.00 | 0.06 | 78 | 1012.1 |
| 20260904161033 | 64 | 192 | 0.0 | 5.0 | 0.00 | 0.00 | 0.06 | 83 | 1012.1 |
| 20260904160536 | 64 | 192 | 1.0 | 6.0 | 0.00 | 0.00 | 0.06 | 86 | 1012.1 |
| 20260904160035 | 62 | 229 | 1.0 | 6.0 | 0.00 | 0.00 | 0.06 | 88 | 1012.0 |
| 20260904155533 | 61 | 189 | 0.0 | 6.0 | 0.00 | 0.00 | 0.06 | 89 | 1012.0 |
| 20260904155037 | 60 | 207 | 1.0 | 5.0 | 0.00 | 0.00 | 0.06 | 90 | 1011.8 |
| 20260904155032 | 60 | 167 | 1.0 | 5.0 | 0.00 | 0.00 | 0.06 | 90 | 1011.8 |
| 20260904154022 | 60 | 217 | 1.0 | 5.0 | 0.00 | 0.00 | 0.06 | 90 | 1011.8 |
| 20260904153524 | 60 | 160 | 1.0 | 0.0 | 0.00 | 0.00 | 0.06 | 90 | 1011.8 |
| 20260904152255 | 60 | 184 | 1.0 | 3.0 | 0.00 | 0.00 | 0.06 | 90 | 1011.7 |
| 20260904151757 | 60 | 176 | 1.0 | 3.0 | 0.00 | 0.00 | 0.06 | 90 | 1011.7 |
| 20260904151244 | 59 | 179 | 0.0 | 3.0 | 0.00 | 0.00 | 0.06 | 90 | 1011.8 |
| 20260904150745 | 59 | 190 | 1.0 | 0.0 | 0.00 | 0.00 | 0.06 | 90 | 1011.6 |
| 20260904145855 | 59 | 225 | 1.0 | 3.0 | 0.00 | 0.00 | 0.06 | 90 | 1011.6 |
| 20260904145613 | 59 | 231 | 1.0 | 0.0 | 0.00 | 0.00 | 0.06 | 90 | 1011.5 |
| 20260904143657 | 59 | 238 | 2.0 | 6.0 | 0.00 | 0.00 | 0.06 | 90 | 1011.2 |
| 20260904143653 | 59 | 232 | 1.0 | 6.0 | 0.00 | 0.00 | 0.06 | 90 | 1011.2 |
| 20260904142654 | 59 | 224 | 3.0 | 6.0 | 0.00 | 0.00 | 0.06 | 90 | 1011.2 |
| 20260904142154 | 59 | 236 | 3.0 | 5.0 | 0.00 | 0.00 | 0.06 | 90 | 1011.1 |
| 20260904141106 | 59 | 229 | 1.0 | 3.0 | 0.00 | 0.00 | 0.06 | 90 | 1011.1 |
| 20260904140605 | 59 | 229 | 1.0 | 1.0 | 0.00 | 0.00 | 0.06 | 90 | 1011.0 |
| 20260904135111 | 59 | 244 | 0.0 | 3.0 | 0.00 | 0.00 | 0.06 | 90 | 1010.8 |
| 20260904134555 | 59 | 221 | 0.0 | 2.0 | 0.00 | 0.00 | 0.06 | 90 | 1010.8 |
| 20260904134051 | 59 | 229 | 0.0 | 0.0 | 0.00 | 0.00 | 0.06 | 90 | 1010.6 |
| 20260904132612 | 59 | 189 | 1.0 | 2.0 | 0.00 | 0.00 | 0.06 | 90 | 1010.5 |
| 20260904132059 | 60 | 207 | 1.0 | 0.0 | 0.00 | 0.00 | 0.06 | 90 | 1010.5 |
| 20260904130613 | 60 | 215 | 1.0 | 0.0 | 0.00 | 0.00 | 0.06 | 90 | 1010.5 |
| 20260904130235 | 60 | 213 | 0.0 | 3.0 | 0.00 | 0.00 | 0.06 | 90 | 1010.6 |
| 20260904125524 | 60 | 215 | 1.0 | 3.0 | 0.00 | 0.00 | 0.06 | 90 | 1010.5 |
| 20260904124017 | 60 | 229 | 0.0 | 1.0 | 0.00 | 0.00 | 0.04 | 90 | 1010.5 |
| 20260904122626 | 60 | 188 | 1.0 | 0.0 | 0.00 | 0.00 | 0.04 | 90 | 1010.2 |
| 20260904122621 | 60 | 210 | 1.0 | 3.0 | 0.00 | 0.00 | 0.04 | 90 | 1010.4 |
| 20260904120744 | 60 | 200 | 0.0 | 1.0 | 0.00 | 0.00 | 0.04 | 90 | 1010.2 |
| 20260904115355 | 60 | 213 | 1.0 | 3.0 | 0.00 | 0.00 | 0.04 | 90 | 1010.1 |
| 20260904114853 | 60 | 207 | 0.0 | 2.0 | 0.00 | 0.00 | 0.04 | 90 | 1010.2 |
| 20260904114353 | 60 | 217 | 0.0 | 3.0 | 0.00 | 0.00 | 0.04 | 90 | 1010.2 |
| 20260904113849 | 60 | 188 | 0.0 | 4.0 | 0.00 | 0.00 | 0.04 | 90 | 1010.1 |
| 20260904113345 | 60 | 183 | 0.0 | 4.0 | 0.00 | 0.00 | 0.04 | 90 | 1010.2 |
| 20260904112839 | 60 | 190 | 0.0 | 0.0 | 0.00 | 0.00 | 0.04 | 90 | 1010.1 |
| 20260904111754 | 60 | 232 | 0.0 | 1.0 | 0.00 | 0.00 | 0.04 | 90 | 1010.1 |
| 20260904110625 | 61 | 236 | 0.0 | 3.0 | 0.00 | 0.00 | 0.04 | 90 | 1010.1 |
| 20260904110124 | 61 | 246 | 0.0 | 3.0 | 0.00 | 0.00 | 0.04 | 90 | 1010.1 |
| 20260904105626 | 61 | 201 | 0.0 | 2.0 | 0.00 | 0.00 | 0.04 | 89 | 1010.1 |
| 20260904105123 | 61 | 201 | 0.0 | 1.0 | 0.00 | 0.00 | 0.04 | 89 | 1010.1 |
| 20260904105118 | 61 | 202 | 1.0 | 1.0 | 0.00 | 0.00 | 0.04 | 89 | 1010.1 |
| 20260904103414 | 61 | 231 | 0.0 | 3.0 | 0.00 | 0.00 | 0.04 | 90 | 1009.9 |
| 20260904102907 | 61 | 248 | 1.0 | 4.0 | 0.00 | 0.00 | 0.04 | 90 | 1009.9 |
| 20260904102901 | 61 | 234 | 1.0 | 3.0 | 0.00 | 0.00 | 0.04 | 90 | 1009.8 |
| 20260904101855 | 61 | 236 | 1.0 | 4.0 | 0.00 | 0.00 | 0.04 | 89 | 1009.8 |
| 20260904101359 | 62 | 183 | 0.0 | 3.0 | 0.00 | 0.00 | 0.04 | 89 | 1009.8 |
| 20260904100244 | 62 | 248 | 1.0 | 5.0 | 0.00 | 0.00 | 0.04 | 89 | 1009.7 |
| 20260904095741 | 62 | 240 | 1.0 | 4.0 | 0.00 | 0.00 | 0.04 | 89 | 1009.7 |
| 20260904095734 | 62 | 227 | 1.0 | 4.0 | 0.00 | 0.00 | 0.04 | 89 | 1009.6 |
| 20260904094732 | 62 | 237 | 1.0 | 3.0 | 0.00 | 0.00 | 0.04 | 89 | 1009.7 |
| 20260904094237 | 62 | 238 | 1.0 | 4.0 | 0.00 | 0.00 | 0.04 | 89 | 1009.6 |
| 20260904094231 | 62 | 230 | 1.0 | 4.0 | 0.00 | 0.00 | 0.04 | 89 | 1009.7 |
| 20260904093232 | 62 | 238 | 1.0 | 0.0 | 0.00 | 0.00 | 0.03 | 89 | 1009.5 |
| 20260904093227 | 62 | 234 | 1.0 | 3.0 | 0.00 | 0.00 | 0.04 | 89 | 1009.5 |
| 20260904091155 | 62 | 232 | 0.0 | 2.0 | 0.00 | 0.00 | 0.03 | 89 | 1009.6 |
| 20260904090653 | 62 | 216 | 0.0 | 2.0 | 0.00 | 0.00 | 0.03 | 89 | 1009.6 |
| 20260904090138 | 62 | 218 | 1.0 | 2.0 | 0.00 | 0.00 | 0.03 | 89 | 1009.6 |
| 20260904084737 | 62 | 194 | 0.0 | 3.0 | 0.01 | 0.01 | 0.03 | 89 | 1009.7 |
| 20260904084237 | 62 | 189 | 0.0 | 0.0 | 0.01 | 0.01 | 0.03 | 89 | 1009.8 |
| 20260904083721 | 62 | 198 | 0.0 | 0.0 | 0.00 | 0.00 | 0.02 | 89 | 1009.8 |
| 20260904082253 | 62 | 200 | 0.0 | 0.0 | 0.00 | 0.00 | 0.02 | 89 | 1009.9 |
| 20260904081112 | 62 | 207 | 0.0 | 0.0 | 0.00 | 0.00 | 0.02 | 89 | 1009.9 |
| 20260904080612 | 62 | 209 | 0.0 | 0.0 | 0.00 | 0.00 | 0.01 | 89 | 1009.9 |
| 20260904075345 | 63 | 194 | 0.0 | 1.0 | 0.00 | 0.00 | 0.00 | 89 | 1009.8 |
| 20260904073825 | 63 | 207 | 0.0 | 0.0 | 0.00 | 0.00 | 0.00 | 89 | 1009.8 |
| 20260904072551 | 63 | 195 | 0.0 | 3.0 | 0.00 | 0.00 | 0.00 | 89 | 1009.9 |
| 20260904072051 | 63 | 180 | 0.0 | 2.0 | 0.00 | 0.00 | 0.00 | 89 | 1009.9 |
| 20260904071551 | 63 | 173 | 0.0 | 2.0 | 0.00 | 0.00 | 0.00 | 88 | 1009.9 |
| 20260904071051 | 63 | 149 | 0.0 | 2.0 | 0.00 | 0.00 | 0.00 | 88 | 1009.8 |
| 20260904070548 | 63 | 58 | 0.0 | 1.0 | 0.00 | 0.00 | 0.00 | 89 | 1009.8 |
| 20260904070013 | 63 | 55 | 0.0 | 0.0 | 0.00 | 0.00 | 0.00 | 89 | 1009.9 |
| 20260904065054 | 63 | 51 | 0.0 | 0.0 | 0.00 | 0.00 | 0.04 | 89 | 1010.1 |
| 20260904064051 | 63 | 51 | 0.0 | 0.0 | 0.00 | 0.00 | 0.04 | 89 | 1010.0 |
| 20260904064028 | 63 | 51 | 0.0 | 0.0 | 0.00 | 0.00 | 0.04 | 89 | 1009.9 |
| 20260904061955 | 63 | 52 | 0.0 | 0.0 | 0.00 | 0.00 | 0.04 | 88 | 1010.1 |
| 20260904061451 | 63 | 52 | 0.0 | 0.0 | 0.00 | 0.00 | 0.04 | 88 | 1010.0 |
| 20260904060927 | 63 | 52 | 0.0 | 0.0 | 0.00 | 0.00 | 0.04 | 88 | 1009.9 |
| 20260904055743 | 64 | 52 | 0.0 | 0.0 | 0.00 | 0.00 | 0.04 | 88 | 1010.0 |
| 20260904055227 | 64 | 52 | 0.0 | 0.0 | 0.00 | 0.00 | 0.04 | 88 | 1009.9 |
| 20260904054707 | 64 | 53 | 0.0 | 0.0 | 0.00 | 0.00 | 0.04 | 87 | 1010.0 |
| 20260904054146 | 64 | 53 | 0.0 | 0.0 | 0.00 | 0.00 | 0.04 | 87 | 1010.1 |
| 20260904053623 | 64 | 53 | 0.0 | 0.0 | 0.00 | 0.00 | 0.04 | 87 | 1010.1 |
| 20260904053119 | 64 | 54 | 0.0 | 0.0 | 0.00 | 0.00 | 0.01 | 86 | 1010.2 |
| 20260904051742 | 64 | 70 | 0.0 | 0.0 | 0.00 | 0.00 | 0.00 | 86 | 1010.2 |
| 20260904050948 | 64 | 67 | 0.0 | 0.0 | 0.00 | 0.00 | 0.00 | 86 | 1010.1 |
| 20260904045928 | 64 | 67 | 0.0 | 0.0 | 0.00 | 0.00 | 0.00 | 86 | 1010.2 |
| 20260904045425 | 64 | 67 | 0.0 | 0.0 | 0.00 | 0.00 | 0.00 | 86 | 1010.1 |
| 20260904044852 | 64 | 67 | 0.0 | 0.0 | 0.00 | 0.00 | 0.00 | 85 | 1010.1 |
| 20260904044353 | 64 | 67 | 0.0 | 0.0 | 0.00 | 0.00 | 0.00 | 85 | 1010.2 |
| 20260904043837 | 64 | 67 | 0.0 | 0.0 | 0.00 | 0.00 | 0.00 | 85 | 1010.1 |
| 20260904043331 | 64 | 67 | 0.0 | 0.0 | 0.00 | 0.00 | 0.00 | 84 | 1010.1 |
| 20260904042045 | 65 | 67 | 0.0 | 0.0 | 0.00 | 0.00 | 0.00 | 83 | 1010.0 |
| 20260904041029 | 65 | 51 | 1.0 | 0.0 | 0.00 | 0.00 | 0.00 | 80 | 1010.2 |
| 20260904035327 | 65 | 38 | 2.0 | 4.0 | 0.00 | 0.00 | 0.00 | 79 | 1010.0 |
| 20260904034828 | 65 | 26 | 2.0 | 4.0 | 0.00 | 0.00 | 0.00 | 78 | 1010.1 |
| 20260904034324 | 65 | 27 | 2.0 | 4.0 | 0.00 | 0.00 | 0.00 | 76 | 1010.1 |
| 20260904034319 | 65 | 34 | 2.0 | 1.0 | 0.00 | 0.00 | 0.00 | 76 | 1010.1 |
| 20260904033016 | 65 | 33 | 2.0 | 5.0 | 0.00 | 0.00 | 0.00 | 75 | 1010.0 |
| 20260904032740 | 66 | 5 | 2.0 | 4.0 | 0.00 | 0.00 | 0.00 | 74 | 1009.9 |
| 20260904031958 | 66 | 349 | 2.0 | 3.0 | 0.00 | 0.00 | 0.00 | 74 | 1009.8 |
| 20260904031003 | 66 | 9 | 2.0 | 3.0 | 0.00 | 0.00 | 0.00 | 73 | 1009.8 |
| 20260904025641 | 67 | 55 | 3.0 | 9.0 | 0.00 | 0.00 | 0.00 | 71 | 1009.8 |
| 20260904025137 | 68 | 0 | 2.0 | 9.0 | 0.00 | 0.00 | 0.00 | 71 | 1009.8 |
| 20260904024640 | 68 | 264 | 2.0 | 4.0 | 0.00 | 0.00 | 0.00 | 72 | 1010.0 |
| 20260904024133 | 68 | 239 | 2.0 | 2.0 | 0.00 | 0.00 | 0.00 | 72 | 1010.0 |
| 20260904022711 | 69 | 242 | 1.0 | 4.0 | 0.00 | 0.00 | 0.00 | 72 | 1009.9 |
| 20260904022156 | 69 | 241 | 2.0 | 1.0 | 0.00 | 0.00 | 0.00 | 72 | 1009.9 |
| 20260904020841 | 69 | 240 | 3.0 | 0.0 | 0.00 | 0.00 | 0.00 | 70 | 1009.9 |
| 20260904020830 | 69 | 242 | 3.0 | 7.0 | 0.00 | 0.00 | 0.00 | 70 | 1009.9 |
| 20260904020614 | 69 | 234 | 3.0 | 5.0 | 0.00 | 0.00 | 0.00 | 70 | 1009.9 |
| 20260904020333 | 69 | 252 | 2.0 | 6.0 | 0.00 | 0.00 | 0.00 | 70 | 1009.9 |
| 20260904013925 | 70 | 230 | 4.0 | 9.0 | 0.00 | 0.00 | 0.00 | 69 | 1010.1 |
| 20260904013420 | 70 | 241 | 3.0 | 5.0 | 0.00 | 0.00 | 0.00 | 69 | 1010.1 |
| 20260904012926 | 70 | 229 | 3.0 | 3.0 | 0.00 | 0.00 | 0.00 | 69 | 1010.2 |
| 20260904011555 | 70 | 242 | 3.0 | 10.0 | 0.00 | 0.00 | 0.00 | 68 | 1010.2 |
| 20260904011054 | 70 | 238 | 3.0 | 10.0 | 0.00 | 0.00 | 0.00 | 68 | 1010.2 |
| 20260904010548 | 71 | 246 | 3.0 | 9.0 | 0.00 | 0.00 | 0.00 | 68 | 1010.3 |
| 20260904010044 | 71 | 244 | 3.0 | 9.0 | 0.00 | 0.00 | 0.00 | 67 | 1010.3 |
| 20260904005550 | 71 | 225 | 3.0 | 2.0 | 0.00 | 0.00 | 0.00 | 67 | 1010.3 |
| 20260904004447 | 71 | 235 | 5.0 | 13.0 | 0.00 | 0.00 | 0.00 | 66 | 1010.4 |
| 20260904003947 | 71 | 238 | 5.0 | 13.0 | 0.00 | 0.00 | 0.00 | 66 | 1010.4 |
| 20260904003448 | 71 | 231 | 4.0 | 13.0 | 0.00 | 0.00 | 0.00 | 65 | 1010.4 |
| 20260904002947 | 71 | 246 | 4.0 | 11.0 | 0.00 | 0.00 | 0.00 | 65 | 1010.3 |
| 20260904002446 | 72 | 242 | 4.0 | 7.0 | 0.00 | 0.00 | 0.00 | 65 | 1010.3 |
| 20260904001947 | 72 | 259 | 3.0 | 4.0 | 0.00 | 0.00 | 0.00 | 65 | 1010.3 |
| 20260904000539 | 72 | 236 | 4.0 | 6.0 | 0.00 | 0.00 | 0.00 | 64 | 1010.4 |
| 20260903235340 | 72 | 244 | 4.0 | 9.0 | 0.00 | 0.00 | 0.00 | 64 | 1010.4 |
| 20260903234841 | 73 | 253 | 4.0 | 5.0 | 0.00 | 0.00 | 0.00 | 64 | 1010.5 |
| 20260903233435 | 72 | 232 | 5.0 | 3.0 | 0.00 | 0.00 | 0.00 | 63 | 1010.6 |
| 20260903232131 | 72 | 232 | 4.0 | 10.0 | 0.00 | 0.00 | 0.00 | 63 | 1010.6 |
| 20260903232126 | 72 | 237 | 5.0 | 6.0 | 0.00 | 0.00 | 0.00 | 64 | 1010.8 |
| 20260903230443 | 73 | 234 | 5.0 | 13.0 | 0.00 | 0.00 | 0.00 | 62 | 1010.9 |
| 20260903225940 | 73 | 236 | 3.0 | 4.0 | 0.00 | 0.00 | 0.00 | 62 | 1010.9 |
| 20260903224611 | 73 | 212 | 4.0 | 8.0 | 0.00 | 0.00 | 0.00 | 61 | 1011.0 |
| 20260903224110 | 73 | 252 | 2.0 | 8.0 | 0.00 | 0.00 | 0.00 | 61 | 1011.0 |
| 20260903223611 | 73 | 247 | 2.0 | 7.0 | 0.00 | 0.00 | 0.00 | 62 | 1011.0 |
| 20260903223106 | 73 | 220 | 3.0 | 2.0 | 0.00 | 0.00 | 0.00 | 62 | 1011.0 |
| 20260903221712 | 73 | 212 | 4.0 | 11.0 | 0.00 | 0.00 | 0.00 | 62 | 1011.1 |
| 20260903221211 | 73 | 247 | 3.0 | 8.0 | 0.00 | 0.00 | 0.00 | 62 | 1011.2 |
| 20260903220711 | 73 | 227 | 4.0 | 3.0 | 0.00 | 0.00 | 0.00 | 62 | 1011.3 |
| 20260903215501 | 73 | 228 | 5.0 | 11.0 | 0.00 | 0.00 | 0.00 | 62 | 1011.6 |
| 20260903214954 | 73 | 239 | 5.0 | 7.0 | 0.00 | 0.00 | 0.00 | 62 | 1011.6 |
| 20260903213708 | 73 | 224 | 4.0 | 10.0 | 0.00 | 0.00 | 0.00 | 61 | 1011.7 |
| 20260903213203 | 73 | 243 | 5.0 | 10.0 | 0.00 | 0.00 | 0.00 | 62 | 1011.7 |
| 20260903212710 | 73 | 244 | 4.0 | 7.0 | 0.00 | 0.00 | 0.00 | 62 | 1011.7 |
| 20260903211242 | 72 | 232 | 5.0 | 11.0 | 0.00 | 0.00 | 0.00 | 62 | 1011.9 |
| 20260903210737 | 72 | 240 | 6.0 | 3.0 | 0.00 | 0.00 | 0.00 | 62 | 1011.9 |
| 20260903205631 | 73 | 240 | 5.0 | 14.0 | 0.00 | 0.00 | 0.00 | 62 | 1011.8 |
| 20260903205627 | 72 | 259 | 7.0 | 15.0 | 0.00 | 0.00 | 0.00 | 62 | 1011.9 |
| 20260903204626 | 73 | 235 | 5.0 | 12.0 | 0.00 | 0.00 | 0.00 | 61 | 1011.8 |
| 20260903204127 | 73 | 246 | 5.0 | 6.0 | 0.00 | 0.00 | 0.00 | 60 | 1011.9 |
| 20260903202657 | 74 | 231 | 4.0 | 9.0 | 0.00 | 0.00 | 0.00 | 59 | 1012.0 |
| 20260903202157 | 74 | 218 | 3.0 | 7.0 | 0.00 | 0.00 | 0.00 | 60 | 1011.8 |
| 20260903201656 | 74 | 220 | 4.0 | 2.0 | 0.00 | 0.00 | 0.00 | 59 | 1011.9 |
| 20260903200433 | 73 | 246 | 5.0 | 5.0 | 0.00 | 0.00 | 0.00 | 60 | 1012.1 |
| 20260903195219 | 74 | 232 | 3.0 | 2.0 | 0.00 | 0.00 | 0.00 | 60 | 1012.5 |
| 20260903193659 | 73 | 238 | 3.0 | 11.0 | 0.00 | 0.00 | 0.00 | 61 | 1012.6 |
| 20260903193159 | 73 | 242 | 3.0 | 6.0 | 0.00 | 0.00 | 0.00 | 61 | 1012.6 |
| 20260903192659 | 73 | 227 | 3.0 | 2.0 | 0.00 | 0.00 | 0.00 | 61 | 1012.6 |
| 20260903191454 | 73 | 204 | 3.0 | 0.0 | 0.00 | 0.00 | 0.00 | 61 | 1012.8 |
| 20260903190245 | 73 | 232 | 3.0 | 9.0 | 0.00 | 0.00 | 0.00 | 62 | 1012.9 |
| 20260903185742 | 73 | 248 | 4.0 | 9.0 | 0.00 | 0.00 | 0.00 | 62 | 1013.0 |
| 20260903185229 | 73 | 234 | 3.0 | 2.0 | 0.00 | 0.00 | 0.00 | 61 | 1013.0 |
| 20260903184425 | 73 | 240 | 3.0 | 7.0 | 0.00 | 0.00 | 0.00 | 62 | 1013.0 |
| 20260903182522 | 71 | 196 | 3.0 | 10.0 | 0.00 | 0.00 | 0.00 | 65 | 1013.1 |
| 20260903182023 | 70 | 238 | 3.0 | 3.0 | 0.00 | 0.00 | 0.00 | 66 | 1013.2 |
| 20260903181149 | 70 | 163 | 3.0 | 10.0 | 0.00 | 0.00 | 0.00 | 66 | 1013.3 |
| 20260903180142 | 70 | 259 | 3.0 | 7.0 | 0.00 | 0.00 | 0.00 | 65 | 1013.2 |
| 20260903175638 | 70 | 157 | 4.0 | 7.0 | 0.00 | 0.00 | 0.00 | 64 | 1013.2 |
| 20260903175137 | 71 | 207 | 3.0 | 6.0 | 0.00 | 0.00 | 0.00 | 64 | 1013.3 |
| 20260903174637 | 70 | 178 | 3.0 | 1.0 | 0.00 | 0.00 | 0.00 | 66 | 1013.3 |
| 20260903173058 | 67 | 193 | 1.0 | 6.0 | 0.00 | 0.00 | 0.00 | 70 | 1013.3 |
| 20260903172600 | 67 | 193 | 2.0 | 5.0 | 0.00 | 0.00 | 0.00 | 71 | 1013.2 |